This is the latest recevied weather packets stored in our database for station/object KB1JL-13. If no packets are shown the sender has not sent any weather packets the latest 10 day(s).
| Time | Temp. | Humidity | Pressure | Rain* | Wind** | Luminosity | Snow |
|---|---|---|---|---|---|---|---|
| 1778163822 | 13.33° C | 49% | 1021.6 hPa | 0 mm | - | 688 W/m² | - |
| 1778163518 | 13.33° C | 51% | 1021.6 hPa | 0 mm | - | 701 W/m² | - |
| 1778163215 | 13.33° C | 53% | 1021.9 hPa | 0 mm | - | 688 W/m² | - |
| 1778162912 | 12.78° C | 53% | 1021.6 hPa | 0 mm | - | 685 W/m² | - |
| 1778162608 | 12.78° C | 51% | 1021.9 hPa | 0 mm | - | 472 W/m² | - |
| 1778162307 | 12.22° C | 55% | 1021.9 hPa | 0 mm | - | 647 W/m² | - |
| 1778162003 | 12.22° C | 52% | 1021.9 hPa | 0 mm | - | 632 W/m² | - |
| 1778161700 | 12.22° C | 53% | 1021.6 hPa | 0 mm | - | 633 W/m² | - |
| 1778161396 | 12.22° C | 60% | 1021.6 hPa | 0 mm | - | 610 W/m² | - |
| 1778161092 | 11.11° C | 61% | 1021.6 hPa | 0 mm | - | 393 W/m² | - |
| 1778160788 | 10.56° C | 60% | 1021.6 hPa | 0 mm | - | 481 W/m² | - |
| 1778160487 | 10.56° C | 61% | 1021.9 hPa | 0 mm | - | 192 W/m² | - |
| 1778160183 | 10.56° C | 63% | 1021.6 hPa | 0 mm | - | 286 W/m² | - |
| 1778159880 | 10.56° C | 66% | 1021.6 hPa | 0 mm | - | 299 W/m² | - |
| 1778159577 | 11.11° C | 66% | 1021.9 hPa | 0 mm | - | 149 W/m² | - |
| 1778159273 | 11.11° C | 68% | 1021.9 hPa | 0 mm | - | 206 W/m² | - |
| 1778158971 | 10.56° C | 68% | 1021.9 hPa | 0 mm | - | 383 W/m² | - |
| 1778158670 | 10° C | 70% | 1021.6 hPa | 0 mm | - | 184 W/m² | - |
| 1778158367 | 10.56° C | 71% | 1021.9 hPa | 0 mm | - | 170 W/m² | - |
| 1778158063 | 10° C | 75% | 1021.6 hPa | 0 mm | - | 453 W/m² | - |
| 1778157760 | 9.44° C | 77% | 1021.6 hPa | 0 mm | - | 430 W/m² | - |
| 1778157459 | 9.44° C | 80% | 1021.9 hPa | 0 mm | - | 211 W/m² | - |
| 1778157156 | 8.89° C | 87% | 1021.6 hPa | 0 mm | - | 423 W/m² | - |
| 1778156851 | 7.78° C | 94% | 1021.9 hPa | 0 mm | - | 181 W/m² | - |
| 1778156547 | 7.78° C | 99% | 1022.2 hPa | 0 mm | - | 169 W/m² | - |
* Rain latest hour (hover to see other rain measurements)
** Current wind speed in m/s (hover to see current wind gust speed)